SKYSAT-C2

Last updated on Wed Feb 04 2026 00:02:33 GMT+0000 (Coordinated Universal Time)

1 41773U 16058D 26034.51265292 .00013074 00000+0 34312-3 0 9999 2 41773 97.0311 61.8390 0004136 146.1543 213.9968 15.38748152524474
UTC large
Height (km)
Speed (km/s)
/
Latitude / Longitude
Inclination (degrees)
Orbital Period (minutes)
Azimuth
Elevation
Range (km)
Doppler Factor

Next 0 passes for location: London (51.5072 / 0.1276)

Sorry there are no passes over London.